Wind_Speed
41 41 42 42 42 42 43 44 44 45 45 46 47 48 48 48 49 49 50 51 51 52 53 54 55 56 57 58 60 61 62 64 66 68 69 70 70 70
42 42 42 42 42 43 44 44 45 46 47 47 48 49 50 50 50 51 52 52 53 55 55 56 58 59 61 62 63 64 66 67 69 70 70 70 69 69
42 42 42 42 42 44 45 46 46 47 48 49 50 51 51 52 53 53 54 54 56 57 58 59 61 62 63 64 65 67 68 70 71 71 71 70 69 68
43 43 43 43 43 45 46 46 47 48 49 50 51 51 52 53 54 55 56 57 58 59 60 61 63 63 64 65 66 68 69 70 71 70 69 67 66 65
42 42 43 43 44 45 46 47 47 49 51 52 52 53 54 55 56 57 58 59 60 61 62 63 63 64 65 66 67 68 69 70 69 67 66 64 63 61
42 43 43 44 45 47 47 48 49 51 52 53 53 54 55 56 57 58 59 60 61 62 63 63 64 65 66 67 68 68 68 68 66 64 63 61 59 58
43 43 44 45 46 47 48 49 50 51 53 54 55 56 57 58 59 60 60 61 61 62 63 64 65 66 66 67 67 67 67 66 64 62 60 57 55 53
42 43 44 46 46 47 49 50 51 52 54 56 57 58 59 60 60 61 62 63 63 63 64 64 66 66 66 67 67 66 66 64 61 58 55 53 50 47
43 44 45 45 47 48 49 51 52 54 55 57 58 59 60 61 62 63 63 64 64 65 65 64 65 66 66 66 66 65 63 61 57 54 51 48 45 42
42 43 45 46 47 49 50 52 53 55 57 58 59 60 61 62 63 64 64 64 64 64 65 65 64 64 64 65 64 63 60 57 54 50 46 42 40 37
42 44 45 46 48 49 51 52 54 56 58 58 59 60 61 62 63 64 64 64 63 63 64 64 63 62 61 62 61 59 56 53 49 45 41 38 36 33
43 43 45 47 48 50 51 53 55 56 57 58 59 60 62 63 64 64 64 63 63 63 62 62 61 61 59 57 57 55 52 48 44 40 37 34 32 29
43 44 45 47 48 50 52 54 55 56 57 58 59 61 62 63 63 62 62 62 62 62 61 60 59 59 57 54 53 51 48 43 39 35 32 30 28 26
43 44 45 47 49 51 53 54 55 56 57 58 60 61 62 61 60 60 60 61 60 59 58 57 57 56 54 52 49 45 41 37 33 30 29 27 25 24
43 44 45 47 49 51 53 54 55 56 58 59 60 60 60 59 58 58 58 58 57 56 55 54 54 53 51 49 44 39 35 32 29 27 25 24 22 20
43 45 46 48 50 52 53 54 55 56 58 59 59 59 58 57 57 57 56 55 53 53 53 53 52 50 47 44 39 34 31 28 26 23 22 21 20 18
44 45 47 49 50 52 53 54 55 57 58 58 58 57 56 55 55 54 53 52 51 51 51 51 49 46 43 39 34 31 28 26 23 20 19 18 18 17
44 45 47 49 51 52 53 54 55 56 57 57 56 54 54 53 53 52 51 50 49 49 48 47 44 41 38 34 31 28 25 22 20 19 18 16 15 15
45 46 48 49 51 52 53 53 55 56 56 54 53 52 52 51 50 49 48 48 47 47 45 42 40 38 34 31 28 26 22 19 17 17 16 14 13 13
45 47 48 50 50 51 52 53 54 55 54 52 50 49 49 48 47 46 46 46 45 43 41 39 37 34 31 27 24 22 19 17 15 14 13 12 11 11
46 48 49 50 50 51 53 54 54 52 51 48 47 47 46 45 45 45 45 44 42 39 38 36 34 31 27 24 21 18 17 15 14 12 11 10 9 9
47 48 49 50 50 52 53 53 51 49 48 47 46 45 45 45 45 44 43 41 38 36 34 32 30 27 23 20 18 16 15 13 12 11 9 8 8 7
47 48 49 49 50 52 52 50 48 47 46 45 45 45 44 44 43 42 41 38 35 33 31 29 27 24 20 18 15 14 13 11 10 9 8 7 7 7
Wind_Direction
292 293 294 296 297 299 300 301 303 304 305 306 306 307 308 308 308 308 308 308 307 307 306 306 305 304 303 302 301 301 300 299 299 298 296 295 293 291
291 292 294 295 297 298 300 301 302 304 304 305 306 306 307 307 308 308 308 308 308 307 307 306 305 305 303 302 302 301 301 300 300 299 298 296 294 293
290 291 292 294 296 298 300 301 302 303 304 305 306 306 307 307 308 308 308 308 308 308 307 307 306 305 305 304 303 303 303 302 302 300 299 297 295 294
289 290 291 294 296 298 299 300 302 303 304 305 306 306 306 307 308 308 308 308 308 308 308 307 307 307 306 306 305 305 305 304 303 302 300 298 297 295
287 289 291 293 295 297 299 300 301 303 304 305 306 306 306 307 308 308 308 309 309 309 309 308 308 308 308 307 307 307 307 306 304 303 301 300 298 296
286 289 291 293 295 297 298 299 301 303 304 305 306 306 306 307 307 308 308 309 309 310 309 309 309 309 308 309 309 309 309 308 306 304 303 302 300 298
286 289 290 293 295 297 298 299 301 303 304 304 305 305 306 307 308 308 308 309 309 309 309 309 309 309 310 310 310 310 310 309 307 306 304 303 301 300
286 288 290 293 295 297 298 300 302 303 303 305 305 305 306 307 308 308 308 309 309 309 309 309 309 310 310 311 311 311 311 310 308 307 306 305 303 302
286 288 290 293 295 297 298 300 302 303 304 305 305 306 307 308 308 308 309 309 309 309 309 310 310 311 311 311 312 312 312 311 310 309 308 306 305 303
286 288 290 292 294 296 298 301 302 303 304 305 306 306 307 308 308 308 308 309 310 309 310 311 311 311 311 312 312 312 312 312 311 310 309 307 307 305
287 289 291 293 295 297 299 301 302 303 304 305 306 306 307 308 308 309 309 309 310 310 311 311 312 312 312 313 313 313 313 312 312 311 310 309 309 307
288 291 292 294 296 298 300 301 303 304 305 306 306 306 308 309 309 310 310 310 311 311 312 312 313 313 314 314 314 314 313 313 312 311 310 311 311 310
289 291 293 295 297 299 301 302 303 305 306 306 306 307 308 309 310 310 310 311 312 313 313 314 314 315 316 316 315 314 313 313 312 311 311 313 313 313
290 292 294 296 298 300 302 303 304 305 306 307 307 308 309 310 310 310 311 312 313 314 314 315 316 316 317 317 317 316 315 314 313 312 313 315 316 315
292 294 295 297 299 301 303 304 305 306 307 308 308 309 310 310 310 311 312 313 314 315 316 317 318 318 319 319 319 317 316 315 314 313 314 315 316 316
293 295 297 299 301 302 304 305 306 307 308 308 309 310 310 310 310 311 313 314 315 316 318 319 319 320 320 320 320 319 318 317 316 315 316 317 318 319
294 296 298 300 302 303 304 305 307 308 309 309 310 310 310 310 311 312 313 314 316 317 318 319 320 320 321 321 321 321 320 319 318 318 319 319 320 321
295 297 299 301 303 304 305 306 308 309 309 310 310 310 311 311 312 313 314 315 316 318 319 320 321 321 322 322 321 322 322 321 319 319 322 322 323 324
297 299 301 302 304 305 306 308 309 310 310 310 310 310 311 312 313 314 315 316 317 318 320 321 322 322 322 321 321 323 324 323 322 322 324 325 327 330
298 300 302 303 304 306 307 309 310 310 310 310 310 311 312 313 314 315 316 317 318 319 320 321 323 323 323 322 322 324 325 326 326 327 329 331 334 339
299 301 303 304 305 307 308 309 310 310 310 310 311 312 313 314 314 316 316 317 318 318 320 322 323 324 324 324 325 325 326 328 330 332 334 337 342 346
300 302 303 304 306 307 308 309 309 309 310 310 311 312 313 313 314 315 316 317 317 318 320 322 323 324 325 325 325 327 328 329 333 337 342 347 351 355
301 303 304 305 306 307 308 308 308 308 309 310 311 312 312 313 314 315 316 316 316 318 320 322 322 323 324 324 325 326 329 330 334 340 348 354 0 6
Height
5724 5722 5719 5716 5713 5710 5706 5703 5700 5696 5692 5687 5682 5677 5672 5667 5662 5657 5651 5646 5641 5635 5630 5624 5618 5612 5606 5600 5594 5588 5582 5575 5569 5562 5555 5548 5541 5534
5716 5713 5710 5707 5704 5701 5697 5694 5690 5686 5682 5678 5672 5667 5661 5656 5651 5646 5640 5634 5628 5622 5616 5610 5604 5598 5591 5585 5578 5571 5564 5557 5549 5542 5534 5526 5519 5512
5707 5704 5702 5699 5695 5692 5688 5684 5680 5676 5672 5668 5662 5656 5651 5645 5640 5634 5628 5622 5616 5609 5603 5596 5589 5582 5575 5568 5560 5553 5545 5537 5529 5521 5512 5505 5497 5491
5698 5695 5693 5690 5687 5683 5679 5675 5670 5666 5661 5657 5652 5646 5640 5634 5628 5622 5616 5609 5602 5595 5588 5581 5573 5565 5558 5551 5543 5535 5526 5518 5509 5500 5492 5484 5477 5469
5689 5686 5684 5681 5678 5674 5670 5665 5660 5656 5651 5646 5641 5635 5629 5622 5616 5610 5603 5596 5588 5581 5573 5565 5557 5549 5542 5534 5525 5517 5508 5499 5489 5480 5472 5465 5457 5450
5680 5677 5675 5671 5668 5664 5660 5655 5650 5645 5640 5635 5629 5623 5617 5610 5603 5597 5590 5582 5575 5567 5558 5550 5542 5533 5525 5517 5509 5499 5489 5480 5470 5462 5454 5446 5439 5432
5670 5668 5665 5662 5658 5654 5649 5645 5640 5635 5629 5623 5617 5611 5604 5597 5590 5583 5576 5569 5562 5553 5544 5535 5526 5518 5509 5500 5490 5481 5472 5462 5453 5445 5437 5429 5422 5416
5661 5658 5655 5652 5648 5643 5639 5634 5629 5623 5617 5611 5605 5598 5591 5584 5577 5569 5562 5555 5548 5541 5531 5522 5511 5502 5493 5484 5474 5464 5455 5446 5438 5429 5421 5414 5407 5401
5651 5648 5645 5641 5637 5633 5628 5623 5618 5611 5605 5599 5592 5585 5578 5571 5563 5556 5547 5539 5532 5523 5515 5508 5497 5487 5477 5467 5458 5449 5440 5431 5423 5415 5408 5401 5395 5389
5641 5638 5635 5631 5627 5623 5618 5613 5606 5600 5593 5587 5580 5572 5564 5556 5548 5540 5532 5525 5517 5507 5497 5492 5483 5473 5462 5452 5442 5433 5425 5417 5409 5402 5395 5389 5384 5379
5631 5628 5624 5621 5616 5612 5607 5602 5596 5589 5581 5574 5566 5558 5550 5542 5534 5526 5518 5509 5503 5494 5483 5475 5468 5460 5451 5439 5428 5419 5411 5404 5397 5391 5385 5379 5375 5370
5621 5618 5614 5610 5605 5600 5595 5590 5584 5577 5569 5562 5554 5546 5537 5529 5520 5511 5503 5495 5487 5480 5471 5462 5453 5444 5439 5429 5418 5408 5400 5392 5387 5381 5375 5371 5366 5362
5610 5607 5603 5599 5594 5589 5583 5577 5571 5564 5557 5549 5541 5533 5524 5516 5507 5498 5489 5481 5472 5464 5456 5448 5439 5430 5422 5416 5408 5397 5389 5383 5377 5372 5367 5363 5359 5355
5600 5596 5592 5588 5583 5577 5571 5565 5558 5551 5544 5536 5528 5520 5511 5503 5494 5485 5477 5468 5460 5451 5443 5434 5426 5418 5410 5403 5396 5388 5381 5375 5370 5365 5361 5357 5353 5350
5589 5585 5581 5576 5571 5566 5559 5552 5545 5538 5531 5523 5515 5507 5498 5490 5482 5474 5465 5457 5448 5439 5431 5423 5415 5407 5399 5392 5385 5379 5374 5369 5364 5360 5356 5352 5349 5346
5578 5574 5569 5565 5559 5553 5547 5540 5533 5525 5517 5510 5502 5493 5485 5478 5470 5462 5454 5446 5438 5429 5420 5413 5405 5397 5390 5383 5376 5372 5367 5363 5359 5355 5351 5348 5345 5342
5566 5563 5558 5553 5547 5541 5534 5527 5520 5512 5505 5497 5489 5481 5473 5466 5458 5451 5443 5436 5429 5421 5413 5404 5396 5388 5381 5375 5370 5366 5361 5357 5354 5351 5348 5345 5342 5339
5555 5551 5547 5541 5535 5529 5522 5515 5507 5500 5492 5484 5476 5469 5462 5455 5447 5440 5432 5426 5419 5411 5404 5396 5389 5382 5375 5369 5364 5361 5357 5353 5350 5347 5344 5342 5339 5337
5544 5539 5534 5529 5523 5516 5509 5502 5495 5487 5479 5471 5464 5457 5450 5443 5436 5429 5422 5416 5409 5402 5395 5388 5382 5376 5370 5365 5360 5356 5353 5350 5347 5344 5342 5339 5337 5335
5532 5527 5522 5516 5510 5504 5497 5490 5483 5475 5467 5460 5453 5446 5439 5433 5426 5419 5413 5407 5400 5394 5387 5381 5375 5370 5365 5360 5356 5353 5350 5347 5344 5342 5340 5338 5336 5334
5520 5515 5510 5504 5498 5491 5485 5478 5471 5463 5456 5449 5443 5436 5429 5423 5417 5410 5404 5398 5392 5386 5381 5375 5370 5365 5360 5356 5353 5350 5347 5345 5342 5340 5339 5337 5336 5334
5508 5503 5497 5491 5485 5479 5472 5466 5459 5452 5445 5439 5433 5426 5420 5414 5408 5401 5395 5389 5384 5379 5374 5369 5365 5360 5357 5354 5351 5348 5345 5343 5341 5339 5337 5336 5335 5334
5495 5490 5485 5479 5473 5466 5460 5453 5447 5441 5435 5429 5422 5416 5410 5404 5398 5392 5387 5382 5377 5373 5368 5364 5360 5357 5354 5351 5348 5346 5344 5342 5340 5339 5337 5336 5335 5334